Weather History for Winner, SD

Change the Weather History Date:

Tuesday, January 1, 2013

  Actual Average Record
Temperature  
Mean Temperature 22 °F 24 °F  
Max Temperature 33 °F 35 °F 34 °F (2012)
Min Temperature 10 °F 14 °F 1 °F (2011)
Degree Days  
Heating Degree Days 43 41  
Month to date heating degree days 43 41  
Since 1 July heating degree days 2457 2747  
Cooling Degree Days 0 0  
Month to date cooling degree days 0 0  
Year to date cooling degree days 0 0  
Moisture  
Dew Point 16 °F    
Average Humidity 78    
Maximum Humidity 92    
Minimum Humidity 63    
Precipitation  
Precipitation 0.00 in 0.01 in 0.02 in (2014)
Month to date precipitation 0.00 0.01  
Year to date precipitation 0.00 0.01  
Sea Level Pressure  
Sea Level Pressure 30.16 in    
Wind  
Wind Speed 8 mph (SW)    
Max Wind Speed 17 mph    
Max Gust Speed 21 mph    
Visibility 10 miles    
Events      
T = Trace of Precipitation, MM = Missing Value Source: NWS Daily Summary

Daily Weather History Graph

Daily Weather History Graph

Search for Another Location

Airport:

Trip Planner

Search our weather history database for the weather conditions in past years. The results will help you decide how hot, cold, wet, or windy it might be!

Date:

Astronomy

Jan. 01, 2013 Rise Set
Actual Time 8:12 AM CST 5:14 PM CST
Civil Twilight 7:39 AM CST 5:46 PM CST
Nautical Twilight 7:03 AM CST 6:22 PM CST
Astronomical Twilight 6:28 AM CST 6:57 PM CST
Moon 9:55 PM CST (1/1) 10:17 AM CST (1/1)
Length of Visible Light 10h 07m
Length of Day
9h 02m
Waning Gibbous, 83% of the Moon is Illuminated
Jan 1
Waning Gibbous
Jan 4
Last Quarter
Jan 11
New
Jan 18
First Quarter
Jan 26
Full

Hourly Weather History & Observations

Time (CST) Temp. Windchill Dew Point Humidity Pressure Visibility Wind Dir Wind Speed Gust Speed Precip Events Conditions
12:10 AM 21.2 °F 11.7 °F 17.6 °F 86% 30.13 in 10.0 mi SSE 8.1 mph - N/A   Mostly Cloudy
12:21 AM 21.2 °F 11.7 °F 17.6 °F 86% 30.13 in 10.0 mi SSE 8.1 mph - N/A   Scattered Clouds
12:53 AM 19.9 °F 10.1 °F 16.0 °F 85% 30.22 in 10.0 mi SSE 8.1 mph - N/A   Clear
2:53 AM 18.0 °F 9.8 °F 15.1 °F 88% 30.22 in 10.0 mi SSW 5.8 mph - N/A   Clear
3:53 AM 18.0 °F 8.7 °F 14.0 °F 84% 30.22 in 10.0 mi SW 6.9 mph - N/A   Clear
4:53 AM 16.0 °F 6.3 °F 12.0 °F 84% 30.22 in 10.0 mi WSW 6.9 mph - N/A   Clear
5:53 AM 16.0 °F 6.3 °F 10.9 °F 81% 30.22 in 10.0 mi SW 6.9 mph - N/A   Clear
6:53 AM 12.9 °F 2.6 °F 9.0 °F 84% 30.22 in 10.0 mi SW 6.9 mph - N/A   Clear
7:53 AM 12.9 °F 2.6 °F 8.1 °F 81% 30.22 in 10.0 mi SW 6.9 mph - N/A   Clear
8:53 AM 10.0 °F 1.8 °F 7.0 °F 87% 30.24 in 10.0 mi SW 4.6 mph - N/A   Clear
9:53 AM 14.0 °F 6.5 °F 10.0 °F 84% 30.23 in 10.0 mi SW 4.6 mph - N/A   Clear
10:53 AM 19.0 °F 11.1 °F 12.9 °F 77% 30.23 in 10.0 mi WSW 5.8 mph - N/A   Clear
11:53 AM 25.0 °F 17.1 °F 18.0 °F 75% 30.19 in 10.0 mi WSW 6.9 mph - N/A   Clear
12:53 PM 28.0 °F 20.8 °F 19.9 °F 72% 30.17 in 10.0 mi SSW 6.9 mph - N/A   Clear
1:53 PM 30.0 °F 21.7 °F 21.0 °F 69% 30.14 in 10.0 mi SSW 9.2 mph - N/A   Clear
2:53 PM 30.9 °F 27.5 °F 21.9 °F 69% 30.12 in 10.0 mi SSW 3.5 mph - N/A   Clear
3:53 PM 32.0 °F 24.2 °F 21.0 °F 64% 30.11 in 10.0 mi SSW 9.2 mph - N/A   Clear
4:53 PM 28.9 °F 20.4 °F 19.9 °F 69% 30.10 in 10.0 mi SSW 9.2 mph - N/A   Clear
5:53 PM 26.1 °F 16.8 °F 18.0 °F 71% 30.10 in 10.0 mi SSW 9.2 mph - N/A   Clear
6:53 PM 23.0 °F 13.9 °F 16.0 °F 74% 30.11 in 10.0 mi SW 8.1 mph - N/A   Partly Cloudy
7:53 PM 24.1 °F 16.0 °F 16.0 °F 71% 30.08 in 10.0 mi SW 6.9 mph - N/A   Clear
8:53 PM 21.9 °F 12.5 °F 15.1 °F 75% 30.09 in 10.0 mi SW 8.1 mph - N/A   Partly Cloudy
9:53 PM 21.0 °F 10.6 °F 14.0 °F 74% 30.08 in 10.0 mi West 9.2 mph - N/A   Clear
10:53 PM 25.0 °F 14.2 °F 17.1 °F 72% 30.07 in 10.0 mi West 11.5 mph - N/A   Overcast
11:53 PM 28.9 °F 17.3 °F 21.0 °F 72% 30.06 in 10.0 mi WNW 16.1 mph - N/A   Overcast